Wind_Speed
36 37 38 39 40 40 41 42 43 43 43 43 43 42 42 41 40 38 36 35 33 32 31 30 29 29 28 29 30 31 31 31 31 31 30 28 25 24 23 22 21 23 24 24 23 21 19 17 13 9 5 3 1 4 8 11 14 21 27 31 33 35 36 38 42 43 43 41 37 37 33 30 33 30 30 31 32 34 36 37 38 37 37 39 40 38 37 35
34 35 36 37 38 40 41 42 43 43 43 44 44 44 44 44 43 42 41 39 37 36 34 33 32 31 31 31 31 32 32 32 32 32 31 30 28 27 26 23 22 23 24 25 25 23 21 18 15 11 7 4 2 3 8 12 16 21 25 30 34 36 37 39 42 43 43 43 40 42 37 30 32 32 31 33 32 35 36 37 37 36 37 40 41 38 36 34
32 33 34 35 37 38 40 41 42 43 43 44 44 45 45 45 46 46 45 44 42 40 38 37 36 36 35 35 33 32 32 32 33 33 32 32 31 30 28 25 23 23 24 26 26 25 23 20 17 13 7 4 4 5 7 12 16 21 23 26 32 36 40 40 41 43 44 45 40 37 37 33 32 33 33 34 33 36 37 37 37 36 38 41 41 37 36 34
31 32 33 34 35 36 38 39 40 41 42 43 44 45 46 47 47 48 48 47 46 45 43 41 40 39 39 38 37 35 33 33 33 33 33 33 33 32 30 28 25 24 24 26 27 27 25 22 19 15 9 5 2 3 6 11 16 20 22 25 31 36 40 42 44 45 43 41 35 29 32 35 34 34 34 34 34 36 37 37 36 36 38 41 41 37 35 34
30 32 33 33 34 35 36 38 39 40 41 42 43 44 46 47 48 49 49 50 49 49 47 46 44 43 42 41 40 39 37 36 34 33 35 35 35 34 32 30 28 25 25 26 27 28 27 24 21 17 12 7 4 1 4 10 15 19 23 27 33 36 39 42 44 44 36 32 30 27 31 35 34 33 32 32 34 36 37 37 37 38 39 41 41 37 35 34
29 31 32 33 34 34 35 36 38 39 40 40 41 43 45 47 48 49 50 50 51 51 50 49 48 47 46 44 43 42 41 40 37 36 36 36 35 34 33 32 30 27 25 25 27 28 28 26 22 19 16 10 6 2 4 7 11 16 22 28 32 36 39 41 41 38 32 30 31 31 35 37 35 32 31 32 34 36 37 37 38 39 40 42 40 37 35 34
29 30 31 32 33 34 35 35 37 38 39 39 40 41 43 45 47 48 49 50 51 51 52 51 50 49 48 47 46 45 44 42 41 40 38 36 35 35 35 33 32 30 27 25 26 27 28 27 24 21 18 13 8 2 3 5 7 11 18 26 31 35 38 40 40 37 34 34 35 36 37 37 35 31 30 32 35 37 38 38 39 39 41 42 40 38 36 33
28 29 30 32 33 34 34 35 36 37 38 39 39 40 41 43 44 46 47 49 50 51 51 52 52 52 51 49 49 48 46 44 43 43 41 38 36 35 35 34 33 32 29 26 24 26 28 27 26 23 19 16 11 6 3 2 4 5 12 22 26 30 34 36 36 34 34 35 35 36 36 36 34 31 31 33 35 38 39 39 39 40 42 42 40 39 36 33
28 29 30 31 32 33 34 35 36 36 37 38 39 39 40 41 42 44 45 47 49 50 51 51 51 52 53 52 52 50 48 48 46 44 42 40 38 36 35 35 34 33 31 28 25 24 25 25 26 25 21 17 14 11 7 2 1 4 10 18 22 26 32 35 35 34 33 32 34 36 35 34 33 32 33 33 35 38 40 40 39 40 42 42 41 39 36 34
29 30 30 31 32 33 33 34 35 36 37 37 38 39 39 40 41 43 44 45 46 48 50 51 51 52 53 53 53 52 52 51 48 46 44 42 41 39 37 35 34 34 32 30 28 24 23 23 25 25 23 19 16 13 10 5 1 4 9 15 19 26 31 34 35 35 33 32 34 35 33 32 32 33 35 35 35 38 40 40 39 40 42 43 41 39 36 35
29 30 31 32 32 33 33 34 34 35 36 36 37 38 39 40 40 42 43 44 45 46 47 49 51 52 52 53 53 54 54 53 51 48 46 44 43 41 39 37 35 34 33 31 30 26 23 22 24 24 23 21 17 15 12 8 4 1 6 10 15 23 28 30 31 31 31 32 33 32 31 32 33 35 36 37 36 38 40 40 40 41 42 43 41 37 36 37
29 30 31 32 33 33 34 34 34 35 35 36 36 37 38 39 40 41 42 42 43 44 45 46 48 50 51 52 53 54 55 54 53 51 49 47 45 43 41 40 37 35 33 32 30 28 25 22 21 21 22 21 19 16 13 10 7 4 3 8 12 19 24 26 29 30 31 32 32 31 33 34 36 37 38 39 38 38 40 41 42 42 43 43 39 36 36 37
28 29 30 31 32 33 33 34 34 34 35 35 36 36 36 37 38 40 41 41 42 43 43 44 46 48 49 51 52 53 54 54 54 54 52 50 47 45 43 42 40 37 34 32 31 29 28 24 21 19 19 20 20 17 14 11 9 6 3 6 10 14 19 24 28 29 31 32 33 33 35 36 37 38 40 40 40 39 40 42 43 44 44 43 39 37 37 38
28 29 29 30 31 32 32 32 33 33 34 34 35 35 36 36 37 38 39 40 41 42 42 42 44 44 47 50 51 52 53 54 54 54 54 53 50 48 45 43 41 39 36 33 31 30 28 26 23 19 17 17 18 17 15 12 9 7 4 4 8 12 17 23 27 28 30 33 34 35 36 36 37 40 42 42 42 42 41 42 44 45 44 43 40 39 39 39
28 28 29 30 31 32 32 32 32 32 33 33 34 35 35 36 36 37 38 39 40 41 42 42 42 42 45 48 49 50 52 52 53 53 54 55 53 51 48 45 42 40 38 35 32 30 28 27 25 21 17 14 14 15 14 13 10 7 5 2 5 11 17 22 26 27 29 32 34 35 37 37 38 41 43 44 45 45 43 44 46 46 45 44 42 40 40 41
29 30 30 30 31 32 32 32 32 33 32 33 33 33 34 35 36 36 37 38 39 40 42 42 42 42 44 46 47 49 50 50 51 53 54 55 55 54 51 48 45 42 39 37 34 31 28 26 24 23 19 15 12 11 12 12 10 7 4 2 3 8 13 19 24 26 28 30 33 35 37 37 38 40 43 45 47 47 46 46 47 47 45 45 44 42 42 43
32 32 32 32 33 33 33 33 33 34 34 33 33 33 34 34 35 36 36 37 38 39 40 41 41 42 43 44 45 47 48 48 50 51 53 54 54 55 54 52 48 44 41 38 36 33 30 26 24 22 21 18 13 10 9 10 9 7 3 1 4 7 11 17 21 24 26 29 32 35 37 37 38 39 42 46 47 48 48 48 48 48 46 46 46 44 44 45
34 33 33 34 34 35 35 35 35 35 35 35 35 34 34 34 34 35 36 37 37 38 39 39 40 41 41 42 43 45 46 47 48 50 51 52 53 54 54 53 51 48 44 41 38 35 32 28 24 21 20 19 16 12 8 6 6 5 4 2 5 8 11 16 19 22 25 29 31 34 37 38 38 39 41 45 47 48 50 51 50 49 48 48 48 47 47 48
35 35 35 35 35 36 36 37 37 36 36 36 36 36 35 35 34 35 36 36 37 37 37 38 39 39 40 40 41 42 43 45 46 48 49 50 52 53 53 53 52 50 48 45 41 37 34 31 27 22 19 18 17 14 10 6 3 2 3 4 5 7 11 15 18 21 25 28 31 34 38 39 39 39 41 45 47 48 51 53 52 51 50 50 50 49 49 50
36 36 36 37 37 37 37 37 37 38 38 37 37 37 37 36 35 35 36 36 36 37 37 37 37 38 39 38 39 40 41 43 44 46 47 49 50 51 52 52 53 52 50 49 46 41 37 34 30 25 20 17 15 14 12 8 4 3 2 2 4 7 11 14 17 21 24 28 32 35 38 40 40 41 42 44 46 48 52 54 55 53 52 52 52 51 51 51
38 38 38 38 38 39 39 38 38 38 38 38 38 38 38 38 37 36 37 37 37 37 37 37 37 38 38 37 37 38 39 41 42 43 45 47 49 50 51 51 52 52 51 50 49 46 41 36 32 29 24 19 15 13 12 11 8 5 5 5 5 7 9 12 16 20 24 28 32 35 39 41 42 44 45 46 48 50 53 55 56 55 54 53 53 53 53 52
42 41 41 40 40 40 40 39 39 39 39 39 39 39 39 39 39 38 38 38 39 38 37 37 37 38 37 36 36 36 37 38 40 42 43 45 47 48 49 50 50 51 51 50 49 48 46 41 36 32 28 23 18 14 12 10 9 7 5 7 8 9 9 11 14 18 22 27 31 35 39 41 44 46 47 48 48 50 52 54 56 56 55 55 54 55 56 55
44 43 42 41 41 41 41 41 40 40 40 40 40 39 39 40 40 39 39 39 39 40 39 38 37 37 37 36 36 36 36 37 39 41 43 44 45 46 47 49 49 50 50 49 48 48 47 45 41 36 32 28 23 17 12 10 8 7 5 6 8 10 12 12 14 17 20 25 29 34 38 42 45 47 49 49 50 51 53 54 56 58 57 55 56 57 58 59
45 44 42 41 41 41 41 42 42 41 41 41 40 40 39 39 39 39 40 40 39 40 40 39 38 37 36 36 36 36 36 37 38 39 41 42 43 44 46 47 48 48 48 48 47 47 47 47 45 42 37 32 27 21 16 12 9 7 5 5 7 9 11 14 16 18 20 23 26 30 36 41 45 49 51 51 52 53 54 55 56 59 57 54 57 60 60 61
43 42 40 40 41 42 42 43 43 43 42 41 41 41 40 39 39 39 40 40 40 40 40 40 39 38 37 36 36 36 35 35 36 37 39 40 41 42 44 45 46 46 47 47 46 47 47 48 46 44 41 37 32 26 21 16 12 9 7 5 6 8 10 13 16 19 21 23 24 27 32 37 43 48 51 53 53 55 56 56 57 59 57 52 55 63 65 64
41 41 41 41 42 42 42 43 44 44 43 42 42 42 41 40 40 39 39 41 41 41 41 41 41 40 38 37 36 35 34 34 35 36 37 39 40 41 42 43 45 45 46 46 46 46 47 47 47 45 44 41 37 31 27 22 17 13 11 8 6 7 10 11 14 16 20 23 25 26 28 32 38 45 50 53 56 56 58 58 58 60 62 59 57 63 68 69
42 42 43 43 42 42 43 44 45 44 43 43 43 42 42 41 41 40 40 40 41 41 42 42 41 41 39 37 36 35 34 34 34 35 37 38 39 40 41 42 43 44 45 45 45 45 46 47 47 46 45 43 40 36 32 28 23 17 14 12 9 8 9 12 14 15 17 21 23 24 26 31 36 39 44 50 55 57 59 61 60 60 64 67 66 64 67 72
43 44 44 44 43 43 43 44 44 44 43 43 43 42 42 42 42 41 40 41 41 41 41 41 41 40 39 36 35 35 34 34 35 35 36 38 38 39 41 42 43 44 45 45 45 45 46 47 47 46 45 44 43 40 36 33 29 23 17 15 13 11 10 11 13 15 17 20 22 22 24 29 34 37 38 42 48 54 59 62 63 63 64 68 71 69 69 72
43 44 44 44 44 44 43 43 42 42 42 43 42 42 42 42 42 41 41 41 41 41 41 42 40 40 39 37 35 35 35 36 36 36 37 38 39 39 40 41 42 44 45 45 45 45 46 47 48 47 45 45 44 43 40 36 33 29 23 18 14 13 13 12 12 14 17 20 21 22 23 27 33 37 37 38 42 48 54 60 63 66 68 70 73 74 74 74
43 44 45 44 44 44 44 42 42 42 42 42 43 43 43 43 42 41 41 41 42 42 42 42 41 40 39 38 36 35 36 36 37 38 38 39 39 40 41 42 42 43 45 45 45 46 46 47 48 48 46 45 45 44 43 40 36 32 29 24 19 15 14 14 13 14 16 18 19 21 23 25 30 34 34 36 40 43 48 54 61 66 70 72 74 77 77 77
45 45 46 46 46 45 44 43 42 43 43 43 43 43 43 43 42 41 41 42 42 42 43 43 43 41 40 39 37 36 36 37 38 39 40 40 41 41 42 43 42 43 44 45 45 46 46 47 48 48 47 46 45 44 44 43 39 35 32 28 25 20 17 15 13 15 16 17 18 20 22 25 28 31 31 32 36 41 45 49 55 62 67 71 74 77 79 79
47 47 47 47 47 47 46 44 43 43 43 43 43 43 43 43 43 42 42 42 42 43 44 44 44 43 42 40 39 38 37 38 39 40 42 42 42 42 43 42 43 44 44 44 46 46 46 46 48 49 48 47 45 44 44 44 42 38 34 31 28 25 22 19 15 15 16 17 18 18 21 24 26 29 30 31 32 36 41 46 50 55 61 67 72 76 79 80
48 48 48 49 49 49 48 45 43 43 43 43 44 44 44 44 44 44 43 43 44 45 46 45 44 44 44 43 41 40 39 39 40 41 42 43 44 44 44 43 43 45 46 46 47 47 47 47 47 49 50 48 46 45 45 45 43 41 37 33 30 28 26 24 20 17 17 17 17 17 19 22 24 27 28 29 30 33 37 41 45 49 54 60 67 74 78 81
49 49 49 51 52 52 48 45 43 44 44 45 46 46 46 46 46 46 44 44 45 46 47 47 46 44 44 44 43 41 41 41 41 41 42 43 44 45 45 44 44 46 47 47 47 48 49 48 46 48 51 50 48 47 46 45 44 42 40 36 33 30 28 27 24 22 21 20 17 15 17 20 23 26 26 25 27 30 33 37 41 44 47 53 60 67 73 79
49 48 49 51 52 51 47 45 44 45 46 47 48 48 49 48 48 47 46 45 46 47 48 49 48 46 45 45 44 43 42 42 42 42 42 42 44 46 46 46 45 46 47 47 47 48 49 49 48 48 50 50 49 48 47 46 45 43 41 38 36 32 30 29 27 25 24 25 21 16 16 19 22 25 26 24 24 27 29 32 36 39 43 47 52 59 66 73
48 48 49 51 51 50 49 47 46 47 48 49 50 51 51 51 50 49 48 48 47 47 49 50 50 48 47 47 46 45 44 44 43 43 43 44 45 47 48 47 47 46 47 48 47 48 50 51 50 50 51 51 50 49 47 46 45 45 43 40 37 34 31 29 28 27 25 26 26 22 18 19 20 23 25 25 24 25 26 28 31 34 37 40 45 51 58 65
49 49 50 50 51 52 52 50 48 49 50 51 52 53 53 53 52 51 51 51 50 50 50 52 52 50 49 48 49 48 46 46 45 44 45 46 48 50 50 49 49 48 47 49 49 49 51 52 53 53 53 52 52 51 49 45 44 45 43 41 39 36 32 30 28 28 25 25 27 27 24 22 20 21 24 25 24 24 25 25 26 29 31 33 36 41 47 54
54 53 52 52 52 53 53 52 51 51 52 53 55 55 55 55 55 54 53 53 53 53 53 54 54 53 51 50 50 50 50 49 48 48 48 49 49 51 52 50 51 50 49 50 51 51 52 53 55 56 55 54 54 54 52 49 46 45 43 41 40 38 35 31 29 28 26 25 26 28 29 27 22 21 23 24 24 25 25 24 24 25 26 27 30 34 38 43
57 56 54 53 53 54 54 54 54 54 55 56 57 56 56 57 57 56 55 55 55 55 55 56 56 56 55 53 52 53 52 51 51 51 51 51 51 53 54 53 53 53 52 51 52 52 53 54 57 59 56 54 55 54 54 53 49 47 45 43 41 39 36 33 30 29 28 26 26 27 30 31 26 23 24 23 23 24 25 25 24 24 25 25 26 29 33 36
59 57 55 54 55 55 55 55 55 56 56 56 56 56 55 56 57 57 56 56 56 56 56 57 57 58 57 56 55 55 54 53 53 53 53 54 53 54 56 56 56 56 54 53 54 54 54 54 57 60 59 56 55 54 54 54 51 48 46 45 44 41 37 33 30 30 29 29 28 26 30 34 30 27 28 26 24 24 23 23 24 25 25 25 25 27 30 33
60 60 59 59 60 59 58 57 57 56 56 57 56 56 56 56 58 58 56 56 55 55 55 56 57 58 58 58 57 56 56 55 55 55 55 56 56 56 57 58 58 58 57 55 55 56 57 56 56 59 60 59 57 56 56 54 51 49 47 47 46 44 40 35 31 31 31 31 31 27 30 37 33 30 31 31 28 27 24 23 23 24 26 25 25 26 27 30
63 63 62 63 63 63 62 62 61 61 60 60 59 58 57 56 57 57 56 55 55 54 55 56 56 57 58 58 58 57 57 57 58 58 58 58 59 59 59 60 60 60 59 58 57 58 58 58 57 58 59 60 59 58 58 56 52 48 48 48 47 46 44 40 34 33 33 34 35 31 33 39 37 33 32 32 32 31 28 25 24 24 25 25 25 25 25 26
66 66 65 65 65 65 64 65 65 64 63 63 63 62 60 58 58 58 57 56 55 55 55 56 56 57 57 58 58 58 58 59 60 61 61 61 61 62 62 62 62 62 61 60 59 59 59 59 57 57 58 60 61 60 60 58 53 49 48 50 49 47 46 44 40 37 36 39 41 37 37 40 38 35 35 33 32 33 31 28 26 25 25 25 25 25 25 25
69 68 68 67 67 66 66 66 66 65 65 66 65 65 64 62 61 60 59 58 57 56 56 56 56 56 57 58 59 59 60 60 61 62 63 63 63 63 64 65 65 64 63 62 62 60 60 60 57 57 58 59 61 63 63 59 55 51 49 50 52 51 48 47 46 43 42 44 45 43 42 41 39 37 36 34 32 33 33 30 28 27 26 25 26 26 26 26
70 70 69 69 68 67 67 67 66 66 66 66 66 66 66 65 64 63 61 60 59 59 58 57 57 57 57 58 59 60 61 61 61 62 63 64 64 65 66 68 69 67 66 65 64 63 62 61 58 57 57 58 60 64 65 62 57 54 52 49 50 52 51 51 49 48 48 47 47 47 45 41 38 38 36 33 32 33 33 32 29 28 27 26 26 27 28 28
72 71 71 70 69 68 68 68 68 68 68 67 66 66 66 66 66 65 63 62 63 63 62 61 61 61 61 60 60 60 61 61 61 61 63 65 66 67 68 70 71 69 67 66 65 66 65 62 60 59 59 59 60 63 66 64 60 57 54 50 49 50 52 53 52 51 51 50 49 50 46 40 37 38 36 32 31 32 33 33 31 29 27 26 26 27 28 28
73 73 72 71 71 70 69 70 70 70 70 69 69 68 68 68 68 67 66 65 66 66 66 65 65 64 63 62 61 61 61 62 63 64 65 66 67 68 69 71 72 70 69 68 66 67 67 65 62 62 62 62 62 64 66 65 62 59 56 52 49 50 53 54 54 53 53 52 51 52 48 42 39 39 36 32 31 32 33 33 32 30 28 27 26 27 27 28
76 75 74 73 72 72 72 72 73 72 72 72 72 72 71 71 71 71 71 70 70 70 69 68 67 65 63 61 62 63 64 66 67 68 69 69 69 69 70 73 74 72 71 71 69 69 69 68 65 64 64 64 65 65 65 66 64 60 56 54 50 51 54 54 54 55 55 54 53 53 50 45 42 41 35 31 31 31 32 33 32 30 28 27 27 26 27 27
78 78 78 77 76 76 75 75 75 75 76 76 74 74 74 74 74 74 75 75 75 74 73 69 67 66 65 65 66 68 70 72 72 73 73 73 73 73 74 75 77 75 74 74 73 72 71 70 69 67 65 66 67 67 67 67 64 60 58 54 51 54 56 54 53 54 55 54 54 54 51 46 45 42 35 31 31 31 30 32 33 31 29 28 27 25 25 27
81 81 82 81 81 80 80 79 78 78 77 77 76 76 76 76 76 76 77 77 76 75 74 71 69 69 70 71 72 73 74 75 75 76 76 75 76 77 77 78 79 79 78 77 76 75 74 73 73 71 68 67 69 70 69 67 65 62 58 53 54 59 57 53 52 54 55 55 56 55 53 49 46 42 36 33 32 30 29 30 31 31 29 28 28 26 25 26
85 85 85 85 84 84 84 84 82 80 78 77 77 77 77 77 78 77 76 75 74 73 72 71 70 71 72 74 75 76 76 76 77 77 77 77 78 79 80 80 80 81 81 80 79 78 78 76 76 75 72 69 69 72 72 70 68 63 54 54 61 62 56 51 53 54 55 56 57 56 55 51 46 41 37 34 32 30 30 30 31 31 29 27 27 25 24 25
87 87 87 87 87 86 86 86 85 83 80 78 77 77 77 77 77 76 72 71 71 71 72 71 72 73 75 77 78 79 80 81 80 80 80 80 82 83 82 81 81 80 82 83 83 82 81 80 79 79 77 72 71 73 74 73 69 59 54 61 65 61 54 53 54 55 56 57 57 57 56 51 45 40 37 34 31 30 30 31 31 31 29 27 25 24 24 25
Wind_Direction
31 31 31 32 32 33 33 34 34 34 34 34 34 34 34 33 33 32 31 31 30 29 27 25 22 21 20 19 18 16 13 11 10 10 8 4 359 357 357 354 355 0 6 11 10 9 11 16 16 14 29 67 148 179 178 184 192 189 185 186 188 190 190 193 193 194 198 197 193 200 210 207 204 209 207 205 203 200 198 196 198 198 195 194 190 187 188 189
29 29 30 30 31 31 32 32 33 33 33 33 33 33 33 34 34 33 33 32 31 30 30 29 27 26 25 23 22 20 17 14 13 12 10 8 5 4 2 359 0 5 11 16 17 16 17 21 23 22 35 71 115 169 180 179 183 189 192 189 185 185 187 191 193 194 198 196 193 200 206 200 199 206 208 206 201 197 195 195 198 196 194 193 188 185 184 184
25 27 27 28 29 30 30 30 31 32 32 33 33 33 33 34 34 34 34 33 32 31 31 30 30 29 28 26 23 22 19 17 16 14 12 12 11 9 6 3 4 9 15 21 23 21 21 24 26 27 35 66 122 172 187 183 183 188 193 190 185 182 184 188 191 196 200 198 197 199 200 198 198 205 208 204 198 195 193 193 195 193 192 190 186 183 182 180
21 23 24 25 26 28 28 28 29 30 31 32 32 32 33 33 34 34 34 33 33 32 32 31 31 30 29 28 26 23 20 19 18 16 14 14 15 13 9 7 8 11 16 23 27 26 25 26 28 29 31 43 106 181 189 184 185 188 187 185 185 184 184 187 190 198 202 198 196 192 193 198 200 204 204 200 197 195 191 190 191 191 190 188 185 183 183 179
16 18 19 21 23 24 25 25 26 27 28 29 30 31 32 32 33 34 34 33 33 33 32 31 31 30 30 28 27 25 23 21 19 17 17 16 16 15 13 11 12 13 18 24 29 30 28 27 29 32 32 30 40 76 188 191 190 188 183 182 185 185 187 190 193 199 199 193 193 191 194 201 203 202 199 196 197 195 190 189 189 190 189 186 184 183 182 177
11 13 15 16 18 19 21 22 23 23 24 26 27 28 29 30 31 32 33 33 33 33 33 32 32 31 30 28 28 27 25 23 21 20 19 17 17 17 16 15 15 15 18 23 29 32 31 29 29 34 35 32 43 96 208 213 200 192 185 184 187 188 189 193 197 200 196 189 191 196 198 200 203 201 195 195 196 194 190 188 188 188 187 185 184 182 179 176
7 9 10 12 13 15 16 18 19 20 20 21 22 24 25 27 28 30 31 31 32 32 33 33 33 33 32 29 28 27 25 24 23 23 21 18 17 18 18 17 17 17 19 23 27 32 34 30 30 34 37 35 36 50 245 245 224 206 190 186 191 192 191 194 198 199 196 190 190 197 199 198 200 201 198 195 195 194 191 188 186 187 187 185 184 181 179 180
3 5 6 8 9 11 12 13 15 16 17 18 19 20 21 23 25 26 28 29 30 30 31 32 33 33 33 31 30 28 26 25 25 25 23 21 19 19 20 19 19 19 20 23 26 32 35 34 33 34 35 39 37 29 358 289 247 227 198 196 199 197 195 196 198 198 195 188 189 197 199 195 196 200 202 197 193 193 191 187 186 188 188 186 185 182 181 185
359 1 3 4 5 7 9 10 11 12 13 14 15 16 18 19 21 22 24 25 27 28 29 30 30 32 33 32 32 30 28 27 26 25 25 23 22 21 21 20 20 20 21 23 25 30 34 35 38 35 32 37 42 42 38 32 222 201 198 203 202 197 197 199 198 198 194 185 189 198 197 193 194 199 205 200 193 193 191 188 188 190 190 188 187 184 185 188
356 358 360 1 2 4 5 6 7 8 10 11 12 13 14 16 17 18 20 21 23 24 26 27 27 29 31 31 31 31 30 29 27 26 25 24 24 23 22 21 21 21 21 23 24 27 30 34 39 38 34 33 39 46 50 51 83 202 202 206 203 197 199 201 198 197 191 183 189 197 194 192 195 200 205 202 195 193 191 190 191 191 191 191 188 187 189 190
353 354 356 357 358 360 1 3 4 5 6 7 9 10 11 12 13 14 15 17 19 21 22 24 25 26 28 29 30 31 31 30 28 27 25 24 24 24 24 23 22 22 22 22 24 25 27 31 37 39 36 34 35 41 48 55 63 177 212 215 210 204 203 201 198 195 188 183 187 194 195 196 199 200 203 203 197 193 192 192 192 191 192 191 189 190 192 193
349 350 351 352 353 355 357 358 360 1 2 3 6 7 9 9 10 10 11 12 14 17 18 20 22 23 25 26 27 29 30 29 28 28 27 25 24 24 25 24 23 23 23 22 23 23 25 28 33 37 38 37 35 37 43 52 64 85 186 209 211 209 206 199 196 195 188 183 185 192 198 202 202 200 202 202 197 193 192 193 192 191 191 190 189 191 194 196
345 346 347 348 349 350 352 353 355 356 357 359 1 3 5 6 7 7 8 9 10 12 14 17 19 20 22 24 24 26 28 28 28 28 28 27 25 24 25 24 24 24 23 23 23 22 24 26 29 32 36 39 38 36 37 45 56 75 126 191 206 209 204 197 196 195 189 183 183 192 199 205 205 200 200 201 198 195 193 194 193 193 192 191 191 193 195 198
340 341 342 343 344 345 347 349 350 351 353 354 356 358 1 3 4 4 5 6 6 7 10 13 16 17 19 22 22 23 25 26 26 27 28 28 27 26 25 24 24 24 23 23 23 22 22 23 25 27 30 36 41 39 34 36 43 59 87 162 193 201 200 196 197 196 192 185 185 193 200 206 208 202 199 200 198 197 195 195 195 195 195 194 193 195 197 200
335 336 337 339 340 341 343 345 346 348 349 350 351 353 356 358 1 2 2 3 4 4 5 9 12 13 16 19 19 20 22 22 23 24 26 27 28 27 26 25 24 24 24 23 23 22 21 22 21 22 24 27 38 44 41 38 36 40 57 103 182 198 199 197 199 198 194 189 189 197 203 207 211 205 199 199 199 199 198 197 197 198 199 197 196 197 199 201
334 334 335 336 337 338 340 342 343 344 346 346 348 349 351 353 356 358 359 360 1 2 3 6 7 9 14 16 16 18 19 19 20 21 23 25 26 27 27 26 25 24 23 23 23 21 20 21 19 17 18 20 26 39 47 48 45 38 42 88 179 203 203 203 203 199 196 195 195 202 206 209 214 209 202 201 200 200 200 198 199 201 202 200 198 199 201 204
332 334 334 335 336 336 337 339 340 341 342 344 344 346 348 349 352 354 356 357 357 359 0 3 4 6 10 13 14 15 15 16 17 18 20 21 23 25 26 26 26 24 23 23 22 21 20 20 19 16 14 15 18 26 38 52 61 59 53 136 195 201 207 211 210 204 201 201 202 205 208 211 216 216 208 204 203 202 202 200 201 203 204 202 201 201 202 205
329 330 332 334 335 335 335 336 337 338 339 340 341 343 345 346 348 350 352 354 354 355 357 0 2 3 6 9 11 12 12 13 15 16 17 18 20 22 24 25 25 25 24 23 22 21 20 19 17 16 14 12 13 19 26 38 59 78 101 167 206 207 211 215 214 211 208 206 207 209 211 212 217 221 215 208 207 206 204 203 204 206 205 203 204 204 204 206
325 326 328 330 332 333 333 334 334 335 335 336 338 339 341 343 344 347 349 351 350 352 354 356 359 0 3 5 7 8 8 10 12 13 14 15 17 19 21 22 23 24 24 24 23 20 19 18 16 14 14 12 11 13 17 17 21 58 122 162 195 210 219 221 218 215 213 211 211 212 214 214 217 223 222 215 212 211 208 206 207 208 206 205 206 206 206 207
321 322 324 326 327 328 329 331 332 333 333 333 334 335 336 338 340 343 345 347 348 349 350 353 354 357 360 1 2 3 5 7 9 11 12 12 14 16 17 19 21 22 23 23 23 21 19 17 16 13 12 12 11 11 10 4 349 301 258 195 193 207 219 224 223 220 218 214 213 215 217 217 219 223 226 221 217 216 213 210 209 209 207 205 207 209 209 209
315 317 319 320 322 323 325 326 328 330 330 330 331 332 332 333 335 338 341 343 345 346 347 349 350 353 356 356 356 359 2 4 7 9 9 10 11 13 14 16 17 19 20 21 22 21 20 18 16 15 13 11 9 10 7 359 349 319 277 254 235 226 222 223 227 226 224 219 215 216 218 219 220 223 226 226 223 220 216 213 211 210 209 208 210 212 212 212
309 311 313 315 316 318 320 322 324 325 326 327 328 329 329 329 331 334 337 340 341 342 344 345 347 349 351 351 351 354 357 1 4 5 6 8 9 9 11 12 14 16 17 19 19 20 19 19 17 15 14 12 9 9 6 358 348 333 298 263 249 244 237 228 228 230 229 226 220 218 218 220 222 224 227 229 228 224 220 217 215 213 212 211 214 216 215 215
305 307 309 310 312 313 315 318 320 321 322 323 324 325 326 326 327 329 333 335 337 338 340 342 344 344 345 345 347 349 352 357 1 2 4 6 6 7 8 9 11 13 14 16 17 17 18 18 18 16 14 13 10 7 5 1 348 333 315 282 261 249 245 240 236 235 233 230 227 223 221 220 222 226 227 229 231 229 224 221 218 216 216 217 220 221 220 219
303 304 305 306 307 309 312 314 315 317 318 319 320 321 322 323 323 325 328 330 332 334 336 338 339 339 340 341 343 346 349 352 357 0 1 3 3 4 6 6 7 9 11 12 13 14 15 16 17 16 14 12 10 7 2 0 351 338 324 293 273 257 247 244 242 241 240 236 233 231 227 223 222 225 227 229 232 232 228 224 221 219 218 222 227 227 225 224
301 302 302 302 304 306 309 310 312 313 315 316 317 317 318 319 320 323 325 326 327 330 331 333 335 336 337 339 340 343 345 348 352 356 358 359 0 1 3 4 5 6 7 9 9 10 11 13 14 14 13 11 9 6 2 358 351 341 331 306 283 271 257 247 245 244 245 243 241 240 236 230 226 225 226 227 231 234 233 228 223 220 218 221 230 233 230 229
299 299 298 299 302 304 306 308 309 310 312 313 313 314 315 316 317 320 322 323 324 327 328 329 332 334 335 337 338 340 341 342 346 350 353 355 356 358 360 1 1 3 4 5 6 7 7 9 11 11 12 11 9 5 1 360 357 345 328 317 301 281 269 259 253 249 249 248 245 246 246 243 235 229 227 227 228 231 234 233 227 221 217 218 226 232 232 230
295 295 295 297 300 301 303 305 306 307 309 310 311 311 312 313 314 317 320 321 322 324 325 327 330 332 333 335 335 336 336 337 341 345 348 351 352 354 356 358 358 360 1 2 2 3 3 5 7 8 9 9 8 5 1 359 359 354 335 320 309 291 275 266 262 258 256 255 250 247 248 251 247 238 231 229 229 230 233 235 232 227 222 220 222 228 232 231
293 293 294 296 297 297 299 301 303 305 307 308 310 309 309 311 312 315 317 317 319 321 322 324 328 329 330 331 332 332 332 333 336 340 343 346 348 350 352 354 355 356 358 358 359 360 360 1 3 4 5 5 6 5 2 358 355 355 349 331 314 300 285 272 265 261 259 260 258 252 248 249 251 247 239 234 232 232 233 235 235 233 230 228 228 229 231 231
291 292 293 294 295 295 297 299 302 304 307 308 309 309 309 309 311 313 314 314 316 318 319 321 325 326 327 328 329 329 330 330 332 336 339 341 343 345 348 350 352 353 354 355 355 356 357 357 359 1 1 1 1 2 1 358 354 350 350 344 332 313 298 288 278 270 263 262 262 259 254 252 252 251 247 243 239 236 236 236 236 236 235 235 236 234 232 231
289 290 292 293 293 294 296 298 301 304 306 307 308 308 308 308 310 312 312 312 314 315 316 319 321 323 324 325 326 327 327 327 329 331 333 336 338 340 343 346 349 350 351 352 352 353 354 354 356 358 358 357 358 358 358 357 355 350 346 343 341 331 313 301 294 285 276 270 267 263 261 259 258 256 252 248 245 242 241 239 238 238 237 237 239 239 236 233
287 289 290 291 292 293 295 297 301 304 305 305 305 305 306 307 309 310 310 311 312 313 315 317 318 320 321 322 323 324 324 324 325 327 329 332 334 336 340 344 346 346 347 348 348 350 352 352 352 354 355 354 354 355 354 353 353 350 345 340 337 334 325 315 305 295 288 282 277 271 267 265 265 264 259 252 247 244 244 243 240 239 240 240 240 241 241 238
287 288 289 290 291 292 293 297 301 303 303 303 303 303 304 305 306 307 308 309 311 312 313 315 316 317 318 319 319 320 321 322 323 324 325 328 330 333 337 340 341 341 343 344 345 346 348 349 349 350 351 351 350 351 351 350 351 349 345 338 333 330 327 324 318 306 295 286 283 280 274 269 267 267 265 259 252 247 245 245 243 241 240 241 242 242 243 242
286 288 289 289 290 290 293 297 300 300 300 301 301 302 302 303 304 305 307 309 310 311 311 312 313 314 315 316 317 318 319 320 321 321 323 325 327 329 332 335 336 337 339 340 341 343 345 347 347 346 347 348 347 347 347 347 348 347 345 337 331 327 324 324 323 319 310 294 284 285 283 277 272 268 266 263 259 253 249 248 248 245 242 241 242 243 244 244
285 286 287 288 288 290 293 296 297 298 299 300 301 302 302 302 303 304 307 309 309 309 309 310 310 312 312 313 314 315 316 317 318 319 320 321 323 325 327 330 332 333 335 337 338 339 341 344 345 344 344 345 344 344 345 344 344 345 343 338 331 325 322 322 321 321 321 312 297 288 289 287 281 276 271 267 263 257 252 250 251 251 248 244 242 243 244 245
284 284 284 286 287 289 292 294 295 296 298 301 301 301 302 302 303 305 307 306 306 307 307 307 308 310 310 310 310 312 313 314 315 316 316 318 319 320 323 325 327 330 331 332 335 336 336 339 341 342 342 342 341 342 342 341 340 341 341 338 332 326 321 319 320 320 322 321 314 301 292 288 286 284 280 274 270 264 258 254 253 253 253 251 247 244 243 243
283 282 283 285 287 288 291 294 295 296 298 300 301 301 302 303 304 305 305 304 305 305 305 305 306 307 308 308 308 309 310 311 313 313 313 315 316 317 320 322 323 326 327 328 331 333 333 334 336 338 340 339 338 340 340 338 336 336 338 336 332 327 321 317 317 319 323 324 321 316 305 293 288 289 287 280 275 270 266 263 261 259 258 257 254 250 246 244
281 282 283 284 285 286 290 294 295 296 297 298 299 299 300 301 302 302 302 303 303 303 303 303 304 305 305 305 305 306 308 309 310 310 311 313 314 315 317 319 320 323 325 325 328 330 330 331 332 335 337 337 336 337 338 336 333 332 334 333 331 327 322 317 314 316 321 324 323 322 317 305 296 294 292 287 281 275 270 267 267 269 268 265 262 257 253 250
280 281 282 283 284 286 289 292 293 293 294 294 295 296 296 297 297 297 298 300 301 301 301 301 302 302 302 302 303 304 306 307 307 308 309 311 312 313 315 317 318 320 322 323 325 327 328 329 329 331 334 335 334 335 336 335 332 329 329 329 329 328 323 317 312 312 316 321 322 324 321 313 306 301 296 294 290 284 277 271 269 272 275 274 271 265 259 255
279 280 281 281 281 283 285 286 286 287 287 288 289 290 292 292 292 293 294 296 298 299 298 299 299 299 300 300 301 301 303 304 305 306 307 309 310 311 312 314 315 316 319 321 323 324 326 327 327 328 331 333 332 332 333 334 331 328 326 325 326 327 323 317 312 310 313 315 318 323 321 314 312 309 301 296 295 291 286 281 278 279 281 281 280 275 268 262
277 277 278 277 276 277 278 278 279 280 280 281 283 284 286 287 288 289 291 293 294 295 296 297 297 297 297 298 299 300 301 302 303 304 305 307 308 309 310 311 312 314 316 319 321 321 323 325 325 325 327 330 330 330 331 332 330 325 322 321 322 324 324 319 311 308 310 311 313 319 318 312 314 315 306 300 296 293 290 288 286 286 287 287 287 283 277 270
275 275 275 275 275 276 277 277 277 277 278 279 280 282 283 285 287 288 289 291 292 293 295 296 296 296 296 296 297 298 299 300 301 302 304 305 306 307 308 309 310 311 314 317 318 318 319 322 323 323 324 326 327 327 328 330 328 322 319 317 318 320 323 322 315 309 309 309 310 317 316 310 314 318 311 304 301 297 294 292 290 289 290 291 291 289 283 275
273 273 273 274 275 276 276 277 277 278 279 280 281 283 284 285 286 287 289 290 291 292 294 295 296 296 295 295 296 296 297 299 300 301 303 304 305 306 307 307 308 309 312 315 315 315 317 319 321 320 321 322 323 324 326 329 327 321 316 314 315 316 319 322 319 312 309 306 307 313 312 308 312 316 310 306 304 302 299 297 294 291 291 292 294 294 289 280
273 273 273 274 274 275 276 276 277 278 279 280 281 282 283 284 285 286 287 289 290 292 293 294 294 294 293 293 294 295 296 298 300 301 303 304 305 306 306 306 307 308 311 313 313 313 314 317 318 318 318 319 320 320 323 326 325 321 316 313 313 313 314 316 317 315 311 307 307 310 307 305 310 311 306 304 303 302 300 299 298 295 293 294 296 297 295 289
273 274 274 274 274 275 275 276 277 279 279 280 281 282 283 283 283 285 286 288 290 290 291 291 291 290 290 291 292 294 296 298 300 301 303 304 305 306 306 305 306 308 310 311 311 311 312 314 316 316 316 317 317 318 321 323 323 321 318 314 311 311 311 311 312 313 312 311 313 311 304 303 307 306 303 302 302 302 300 299 301 302 299 299 300 301 300 298
274 275 275 275 275 275 275 276 277 278 278 279 281 282 282 283 283 284 285 286 287 287 287 287 287 287 287 288 290 292 295 297 299 301 303 304 304 304 304 305 305 307 309 309 310 310 311 313 314 314 314 315 315 316 318 320 320 321 321 316 310 308 308 307 308 310 310 312 315 312 305 304 305 301 299 300 300 299 300 299 300 303 304 303 304 305 305 306
275 275 275 275 275 276 277 277 277 277 278 279 280 281 282 283 284 284 284 284 284 285 285 286 286 286 287 288 290 292 294 296 297 299 300 301 301 302 302 303 303 305 307 307 308 308 309 312 312 311 311 312 313 314 315 317 318 321 321 317 310 306 304 304 305 306 307 309 313 311 307 304 301 297 295 296 296 295 297 299 299 301 304 304 304 306 308 309
274 274 275 275 276 276 277 277 278 278 279 280 280 281 281 282 283 283 283 283 283 283 284 285 285 286 288 290 291 292 292 293 294 296 296 297 298 299 300 301 301 303 304 304 305 306 308 309 310 309 310 311 311 312 313 314 316 320 320 317 310 303 299 301 303 303 304 306 309 309 308 305 299 294 292 294 293 292 293 297 299 301 304 304 303 305 307 309
273 273 274 274 275 275 276 277 279 280 280 280 281 281 282 282 283 283 284 284 284 284 285 285 286 286 288 288 289 289 289 291 292 293 293 294 296 298 299 299 299 300 301 302 303 304 305 307 307 307 308 309 309 310 310 311 315 318 318 315 307 298 296 300 301 300 301 303 305 306 309 306 297 292 293 293 290 289 291 295 297 299 303 304 303 304 307 309
271 272 273 274 274 274 275 276 278 280 281 281 281 282 282 282 282 282 283 284 284 285 285 285 285 285 285 286 286 287 289 290 291 292 293 294 296 297 298 298 298 299 300 301 301 302 304 304 304 305 306 307 307 307 308 310 312 315 316 312 301 296 299 301 298 297 298 300 301 304 308 305 295 293 296 292 288 288 290 292 296 298 302 304 303 304 308 309
269 270 271 272 273 274 274 275 277 280 281 281 280 281 281 281 281 282 283 284 284 285 284 284 284 285 285 286 286 287 288 289 291 292 293 294 296 297 296 297 297 298 298 299 300 301 301 301 302 302 303 304 305 305 306 307 309 313 314 305 295 299 304 301 295 294 295 297 299 302 306 303 295 295 295 289 287 289 288 289 293 297 300 303 303 305 309 309
266 268 269 271 272 273 273 274 276 279 281 280 279 279 279 280 281 281 282 283 283 283 284 285 286 286 287 287 287 288 288 289 290 292 293 296 297 297 297 296 296 296 297 297 298 299 299 299 299 299 300 302 302 302 303 303 306 312 308 295 296 304 305 296 292 292 293 295 298 300 303 301 296 294 292 288 287 288 287 289 291 294 297 299 301 304 307 308
265 267 269 270 271 272 272 273 274 278 280 280 278 277 278 279 279 279 280 280 281 282 284 286 287 287 288 288 288 289 289 290 291 292 294 296 298 299 298 296 295 294 295 295 296 296 296 297 296 297 298 298 299 300 299 300 305 308 297 292 301 305 299 292 291 291 291 293 295 298 301 298 294 293 291 287 285 285 287 289 290 293 296 295 299 303 305 307
Height
10787 10785 10783 10780 10778 10775 10773 10770 10768 10765 10762 10760 10757 10754 10751 10748 10745 10742 10739 10736 10733 10730 10727 10724 10721 10719 10716 10713 10710 10707 10705 10702 10699 10695 10692 10688 10685 10681 10678 10674 10672 10668 10664 10660 10656 10653 10650 10647 10645 10644 10643 10644 10644 10645 10646 10647 10648 10648 10648 10649 10652 10656 10659 10662 10664 10668 10673 10680 10687 10690 10689 10692 10698 10702 10704 10705 10707 10709 10712 10714 10715 10717 10719 10721 10725 10730 10735 10740
10789 10787 10784 10782 10779 10776 10774 10772 10769 10766 10764 10761 10759 10756 10753 10750 10746 10743 10740 10737 10734 10731 10728 10725 10722 10719 10715 10712 10710 10707 10704 10702 10699 10695 10692 10688 10684 10680 10677 10674 10671 10667 10664 10660 10656 10653 10650 10647 10645 10644 10643 10643 10644 10645 10645 10646 10647 10648 10648 10648 10650 10654 10658 10661 10664 10667 10671 10677 10682 10684 10687 10691 10696 10699 10700 10702 10705 10708 10710 10712 10713 10716 10718 10720 10725 10730 10735 10738
10790 10788 10786 10783 10780 10778 10775 10773 10770 10768 10765 10763 10760 10757 10754 10751 10748 10744 10741 10738 10735 10731 10728 10725 10722 10718 10715 10712 10709 10707 10704 10702 10698 10695 10692 10688 10684 10680 10677 10673 10670 10667 10663 10660 10656 10653 10650 10648 10646 10645 10644 10643 10644 10645 10646 10646 10647 10647 10649 10651 10652 10653 10656 10660 10664 10666 10668 10674 10680 10682 10686 10690 10693 10695 10697 10700 10703 10706 10708 10710 10712 10715 10717 10721 10726 10731 10734 10737
10790 10788 10786 10784 10781 10779 10776 10774 10772 10769 10767 10764 10762 10759 10756 10753 10749 10746 10742 10739 10736 10732 10729 10725 10722 10718 10715 10712 10709 10707 10704 10701 10698 10696 10692 10688 10684 10680 10677 10673 10670 10667 10663 10660 10656 10654 10651 10649 10647 10646 10645 10644 10645 10646 10646 10647 10647 10648 10650 10653 10655 10655 10657 10659 10662 10664 10667 10674 10680 10684 10687 10689 10690 10692 10695 10699 10703 10705 10707 10709 10712 10714 10717 10721 10726 10730 10733 10736
10790 10788 10786 10784 10782 10780 10777 10775 10773 10770 10768 10765 10763 10760 10757 10754 10751 10747 10744 10741 10737 10734 10730 10726 10723 10719 10716 10713 10710 10707 10704 10701 10699 10696 10692 10688 10684 10681 10678 10674 10670 10667 10664 10660 10657 10655 10652 10650 10649 10647 10646 10646 10646 10647 10647 10647 10647 10648 10650 10652 10653 10656 10658 10660 10661 10663 10668 10675 10680 10685 10688 10688 10689 10692 10696 10700 10702 10704 10706 10708 10711 10713 10716 10720 10725 10729 10732 10736
10790 10788 10786 10784 10782 10780 10778 10776 10774 10771 10769 10766 10764 10761 10758 10755 10752 10749 10746 10743 10739 10735 10732 10728 10724 10720 10717 10713 10711 10707 10704 10702 10699 10696 10692 10689 10685 10682 10679 10675 10671 10667 10664 10661 10658 10656 10653 10652 10651 10649 10648 10647 10647 10648 10648 10648 10648 10649 10651 10652 10654 10656 10658 10660 10662 10665 10669 10674 10679 10682 10684 10686 10689 10693 10696 10698 10700 10703 10704 10707 10709 10713 10716 10720 10724 10727 10730 10734
10790 10788 10786 10784 10782 10781 10779 10777 10774 10772 10770 10767 10765 10762 10759 10757 10754 10751 10748 10744 10741 10738 10734 10730 10726 10722 10718 10715 10711 10708 10705 10703 10700 10696 10692 10690 10687 10683 10680 10676 10672 10669 10666 10662 10660 10657 10655 10654 10653 10650 10649 10649 10649 10649 10649 10650 10651 10651 10652 10653 10654 10655 10657 10660 10662 10665 10667 10671 10676 10679 10681 10685 10689 10693 10695 10697 10699 10701 10703 10706 10709 10713 10716 10719 10722 10725 10728 10731
10790 10788 10786 10784 10783 10781 10779 10777 10775 10773 10771 10768 10766 10763 10760 10758 10755 10752 10749 10746 10743 10739 10736 10732 10728 10724 10720 10717 10713 10709 10707 10704 10700 10696 10694 10692 10689 10685 10681 10678 10674 10671 10667 10664 10662 10659 10657 10656 10654 10652 10651 10651 10651 10650 10651 10651 10652 10654 10655 10654 10655 10657 10659 10661 10663 10666 10668 10673 10677 10679 10680 10685 10689 10693 10694 10695 10698 10700 10703 10706 10709 10712 10715 10717 10720 10723 10727 10729
10790 10788 10786 10785 10783 10781 10780 10778 10776 10774 10771 10769 10767 10764 10761 10759 10756 10753 10750 10747 10744 10741 10738 10734 10731 10727 10722 10718 10714 10712 10709 10704 10701 10698 10696 10693 10690 10687 10683 10679 10676 10672 10669 10666 10663 10660 10659 10657 10655 10653 10653 10653 10652 10652 10652 10653 10653 10655 10656 10656 10657 10660 10661 10662 10664 10666 10670 10675 10678 10678 10680 10685 10689 10692 10692 10694 10697 10699 10702 10706 10709 10711 10713 10716 10719 10722 10725 10727
10789 10788 10786 10784 10783 10781 10780 10778 10776 10774 10772 10770 10767 10765 10762 10759 10757 10754 10751 10749 10746 10742 10739 10736 10733 10729 10724 10720 10717 10714 10710 10705 10703 10700 10697 10695 10692 10688 10684 10681 10677 10674 10671 10668 10665 10662 10661 10659 10656 10655 10655 10655 10654 10653 10653 10654 10654 10655 10656 10657 10658 10659 10660 10661 10662 10665 10669 10674 10676 10678 10682 10687 10689 10690 10691 10693 10696 10698 10701 10704 10707 10710 10712 10714 10718 10721 10723 10725
10789 10787 10785 10784 10782 10781 10779 10778 10776 10774 10772 10770 10768 10765 10763 10760 10757 10755 10752 10750 10747 10744 10741 10738 10734 10730 10726 10723 10719 10716 10711 10707 10705 10702 10699 10696 10692 10689 10686 10683 10679 10676 10673 10670 10667 10665 10663 10660 10658 10657 10657 10656 10655 10654 10654 10654 10655 10656 10656 10657 10658 10658 10659 10661 10663 10666 10669 10673 10677 10680 10684 10686 10686 10687 10689 10691 10694 10697 10699 10702 10705 10708 10710 10713 10716 10719 10721 10723
10788 10787 10785 10783 10781 10780 10778 10777 10775 10774 10772 10770 10768 10765 10763 10760 10758 10755 10753 10750 10748 10745 10742 10739 10736 10733 10729 10725 10721 10717 10713 10710 10708 10704 10700 10697 10693 10691 10687 10684 10681 10677 10675 10672 10669 10667 10664 10662 10660 10659 10658 10657 10657 10656 10656 10655 10655 10656 10657 10658 10658 10659 10659 10661 10664 10666 10669 10673 10678 10681 10682 10681 10682 10685 10687 10690 10693 10695 10697 10700 10703 10706 10709 10712 10714 10717 10719 10720
10788 10786 10784 10783 10781 10779 10778 10776 10775 10773 10771 10769 10767 10765 10763 10761 10758 10756 10753 10751 10748 10746 10744 10741 10737 10735 10731 10727 10723 10719 10715 10712 10710 10706 10703 10699 10695 10692 10688 10685 10682 10679 10677 10674 10671 10669 10666 10664 10662 10661 10660 10659 10658 10658 10657 10657 10657 10657 10657 10658 10659 10660 10661 10663 10664 10667 10669 10673 10676 10678 10678 10679 10680 10683 10686 10689 10692 10694 10696 10698 10700 10704 10707 10709 10712 10714 10716 10718
10787 10786 10784 10782 10780 10778 10777 10775 10774 10772 10771 10769 10767 10765 10763 10761 10758 10756 10753 10751 10748 10746 10744 10742 10739 10737 10733 10729 10725 10722 10718 10715 10712 10709 10705 10701 10697 10693 10690 10687 10684 10681 10678 10676 10673 10671 10669 10666 10665 10663 10662 10661 10660 10659 10659 10659 10658 10658 10658 10659 10660 10660 10662 10664 10665 10668 10670 10673 10675 10676 10677 10678 10679 10681 10684 10687 10690 10692 10694 10695 10698 10701 10704 10707 10710 10712 10714 10715
10786 10785 10783 10781 10779 10777 10776 10774 10773 10771 10770 10768 10766 10764 10762 10761 10758 10756 10753 10751 10748 10746 10744 10741 10739 10738 10734 10730 10727 10724 10720 10717 10714 10711 10707 10703 10699 10695 10691 10688 10685 10682 10680 10678 10675 10673 10671 10669 10667 10666 10664 10663 10662 10661 10661 10660 10660 10660 10660 10660 10661 10661 10662 10664 10666 10668 10670 10673 10676 10676 10677 10677 10677 10679 10682 10685 10688 10690 10691 10693 10695 10699 10702 10705 10708 10710 10711 10712
10785 10783 10782 10780 10778 10777 10775 10773 10771 10770 10769 10768 10766 10764 10762 10760 10758 10756 10753 10750 10748 10746 10743 10740 10739 10737 10733 10730 10727 10724 10721 10719 10716 10713 10708 10705 10701 10697 10694 10690 10687 10684 10682 10680 10678 10676 10674 10671 10669 10668 10666 10665 10664 10663 10662 10662 10661 10661 10662 10662 10662 10663 10664 10666 10667 10669 10671 10673 10675 10676 10677 10678 10678 10679 10682 10684 10686 10688 10690 10692 10695 10698 10701 10704 10706 10707 10708 10709
10783 10782 10780 10779 10777 10775 10774 10772 10770 10768 10767 10766 10765 10763 10761 10760 10758 10756 10753 10750 10748 10745 10743 10741 10739 10736 10733 10731 10728 10725 10723 10721 10717 10713 10709 10706 10703 10699 10696 10692 10689 10686 10684 10682 10680 10678 10676 10673 10672 10670 10668 10667 10666 10665 10664 10664 10663 10663 10663 10663 10663 10664 10665 10666 10667 10669 10671 10672 10674 10675 10677 10678 10679 10679 10680 10683 10685 10687 10689 10692 10694 10696 10699 10702 10704 10704 10705 10706
10781 10780 10779 10778 10776 10774 10772 10771 10769 10767 10765 10764 10763 10762 10761 10759 10757 10755 10753 10751 10748 10746 10743 10741 10739 10736 10733 10731 10729 10727 10724 10721 10718 10715 10711 10708 10705 10701 10697 10694 10691 10689 10686 10684 10681 10679 10678 10675 10674 10672 10670 10669 10668 10666 10666 10665 10665 10664 10663 10663 10663 10663 10664 10665 10667 10669 10671 10672 10673 10675 10676 10678 10679 10679 10679 10681 10683 10685 10687 10689 10691 10694 10697 10700 10701 10702 10702 10703
10779 10778 10777 10776 10775 10773 10771 10769 10768 10766 10764 10762 10761 10760 10759 10758 10756 10754 10752 10751 10749 10746 10744 10741 10739 10737 10734 10731 10730 10728 10725 10722 10719 10715 10712 10709 10706 10702 10699 10697 10694 10690 10688 10685 10683 10681 10679 10677 10675 10674 10672 10671 10669 10668 10667 10666 10666 10665 10664 10663 10663 10663 10664 10664 10666 10667 10669 10670 10672 10673 10674 10675 10677 10677 10677 10679 10681 10683 10685 10686 10688 10691 10694 10696 10698 10699 10700 10701
10776 10776 10775 10774 10773 10771 10770 10768 10766 10764 10762 10760 10759 10757 10756 10756 10755 10753 10751 10750 10748 10746 10743 10741 10739 10737 10733 10731 10730 10729 10726 10723 10719 10716 10713 10710 10707 10704 10701 10698 10695 10692 10689 10686 10684 10682 10680 10679 10677 10675 10674 10672 10671 10669 10668 10667 10667 10666 10666 10664 10664 10663 10663 10664 10664 10665 10666 10668 10670 10671 10671 10673 10674 10675 10675 10676 10678 10678 10679 10681 10684 10687 10690 10693 10694 10696 10698 10699
10773 10773 10772 10771 10770 10769 10768 10767 10765 10763 10761 10759 10757 10756 10754 10753 10752 10752 10750 10748 10746 10744 10742 10740 10738 10735 10732 10731 10730 10728 10726 10723 10720 10717 10714 10711 10707 10704 10702 10699 10696 10693 10690 10687 10685 10683 10681 10680 10678 10677 10675 10674 10672 10670 10669 10669 10668 10668 10667 10666 10665 10664 10664 10664 10664 10664 10664 10665 10667 10668 10668 10669 10670 10670 10671 10672 10673 10674 10675 10678 10681 10684 10687 10689 10691 10692 10694 10695
10770 10769 10769 10768 10768 10767 10766 10765 10763 10762 10760 10758 10756 10754 10752 10750 10749 10748 10748 10746 10744 10742 10741 10739 10737 10734 10732 10731 10729 10727 10726 10723 10720 10717 10714 10710 10707 10705 10703 10700 10697 10695 10691 10688 10686 10684 10682 10681 10679 10678 10676 10675 10673 10671 10670 10670 10669 10669 10668 10666 10665 10664 10664 10663 10663 10662 10662 10663 10664 10665 10665 10666 10666 10667 10668 10670 10672 10673 10675 10677 10679 10682 10685 10688 10688 10687 10688 10690
10767 10766 10765 10765 10765 10764 10763 10762 10761 10760 10758 10756 10754 10753 10751 10748 10746 10745 10745 10744 10742 10740 10739 10737 10736 10734 10732 10730 10728 10726 10724 10722 10719 10716 10713 10710 10708 10705 10703 10700 10697 10695 10692 10689 10687 10685 10684 10682 10680 10678 10677 10675 10674 10672 10671 10671 10670 10669 10668 10667 10666 10664 10663 10663 10662 10661 10660 10660 10661 10662 10662 10663 10663 10664 10665 10667 10669 10671 10673 10675 10678 10681 10684 10686 10684 10682 10682 10684
10763 10762 10762 10761 10761 10761 10760 10758 10758 10757 10756 10754 10753 10751 10749 10747 10745 10743 10742 10742 10741 10739 10737 10736 10735 10734 10732 10730 10727 10724 10721 10719 10717 10715 10713 10710 10708 10705 10703 10700 10697 10695 10693 10691 10689 10687 10685 10683 10681 10679 10677 10676 10675 10673 10672 10671 10670 10669 10668 10667 10665 10665 10663 10662 10661 10659 10658 10658 10659 10659 10658 10660 10661 10661 10662 10663 10665 10667 10670 10673 10676 10679 10684 10687 10682 10679 10679 10679
10759 10758 10758 10757 10757 10757 10757 10755 10754 10754 10753 10752 10750 10749 10747 10745 10744 10742 10741 10739 10739 10738 10736 10734 10734 10732 10730 10728 10725 10722 10720 10718 10717 10715 10713 10711 10709 10706 10703 10701 10698 10696 10694 10692 10690 10688 10686 10684 10681 10679 10677 10676 10675 10673 10672 10670 10669 10668 10667 10666 10665 10664 10663 10662 10660 10659 10657 10657 10657 10656 10656 10657 10658 10658 10659 10660 10661 10662 10664 10668 10672 10676 10682 10684 10678 10673 10673 10673
10755 10754 10753 10753 10754 10753 10753 10752 10751 10750 10749 10748 10747 10746 10745 10743 10742 10741 10740 10737 10736 10735 10733 10732 10731 10729 10727 10725 10723 10721 10719 10717 10716 10714 10713 10711 10708 10706 10704 10701 10699 10696 10694 10692 10690 10687 10686 10684 10682 10679 10678 10675 10674 10673 10671 10670 10668 10667 10665 10664 10663 10662 10661 10661 10659 10658 10656 10655 10655 10654 10654 10653 10653 10655 10656 10657 10657 10658 10659 10661 10665 10670 10674 10673 10667 10663 10664 10666
10750 10749 10748 10749 10749 10749 10749 10748 10746 10746 10746 10745 10744 10743 10741 10740 10739 10739 10738 10735 10733 10733 10731 10729 10728 10726 10725 10723 10721 10720 10719 10717 10715 10713 10712 10710 10708 10705 10703 10701 10698 10696 10694 10691 10690 10687 10685 10684 10682 10679 10677 10675 10674 10672 10670 10668 10668 10666 10664 10662 10661 10661 10660 10659 10658 10657 10655 10653 10652 10653 10652 10650 10649 10651 10653 10654 10655 10655 10655 10656 10660 10664 10666 10664 10659 10657 10657 10659
10745 10744 10743 10744 10744 10745 10745 10744 10743 10742 10741 10740 10740 10739 10738 10737 10736 10736 10735 10733 10731 10730 10728 10727 10726 10724 10723 10722 10720 10718 10717 10715 10714 10712 10710 10708 10707 10705 10703 10700 10697 10695 10693 10691 10689 10687 10684 10682 10681 10679 10676 10674 10673 10671 10669 10666 10665 10665 10663 10661 10659 10658 10658 10657 10656 10655 10654 10651 10650 10650 10650 10647 10645 10647 10650 10651 10651 10651 10650 10651 10654 10657 10658 10657 10655 10654 10653 10654
10741 10739 10739 10738 10739 10740 10740 10740 10739 10738 10737 10736 10735 10735 10734 10733 10733 10733 10732 10730 10728 10727 10725 10724 10724 10723 10721 10720 10719 10717 10714 10712 10711 10710 10708 10707 10705 10703 10701 10700 10697 10694 10692 10689 10687 10685 10683 10681 10679 10678 10675 10673 10672 10670 10668 10666 10663 10662 10662 10660 10658 10656 10655 10655 10654 10653 10651 10650 10648 10648 10646 10644 10642 10642 10646 10648 10647 10646 10645 10645 10646 10647 10649 10648 10647 10647 10647 10649
10736 10735 10734 10733 10734 10734 10735 10735 10735 10735 10734 10732 10731 10730 10730 10729 10729 10729 10728 10727 10725 10724 10722 10721 10721 10721 10719 10718 10717 10715 10712 10710 10708 10707 10706 10705 10703 10701 10699 10697 10695 10692 10690 10688 10685 10683 10681 10679 10677 10676 10674 10672 10670 10668 10666 10665 10663 10661 10659 10658 10657 10656 10654 10653 10652 10650 10649 10647 10646 10645 10643 10641 10638 10638 10642 10643 10642 10641 10640 10639 10638 10639 10640 10640 10639 10639 10641 10644
10730 10729 10729 10728 10728 10729 10730 10731 10731 10730 10729 10728 10727 10726 10726 10725 10725 10725 10725 10724 10722 10720 10719 10718 10717 10717 10717 10715 10714 10713 10711 10708 10706 10704 10702 10701 10700 10698 10696 10694 10692 10691 10689 10687 10684 10682 10680 10677 10675 10674 10673 10670 10669 10667 10665 10663 10661 10659 10657 10656 10655 10654 10652 10651 10650 10648 10646 10645 10644 10642 10640 10638 10635 10634 10635 10637 10637 10637 10635 10634 10633 10633 10633 10634 10634 10634 10634 10637
10724 10724 10723 10723 10723 10723 10724 10725 10726 10725 10724 10723 10722 10721 10721 10721 10721 10721 10721 10720 10718 10716 10715 10715 10714 10712 10712 10712 10711 10710 10709 10707 10704 10701 10698 10697 10696 10695 10694 10692 10691 10689 10688 10686 10683 10681 10679 10676 10673 10671 10671 10669 10667 10666 10664 10661 10659 10657 10656 10654 10652 10651 10649 10648 10647 10646 10644 10642 10641 10640 10637 10635 10633 10631 10629 10630 10631 10631 10630 10629 10628 10628 10628 10629 10629 10628 10628 10631
10719 10718 10718 10717 10717 10718 10719 10720 10720 10720 10719 10718 10717 10716 10716 10717 10716 10716 10717 10716 10714 10712 10711 10711 10711 10709 10707 10707 10707 10706 10705 10704 10702 10699 10696 10693 10692 10691 10691 10690 10689 10686 10684 10682 10680 10678 10676 10675 10671 10668 10668 10667 10665 10663 10661 10659 10657 10655 10654 10652 10650 10649 10647 10645 10644 10643 10641 10639 10638 10637 10634 10632 10630 10627 10626 10626 10625 10625 10624 10623 10623 10623 10623 10623 10622 10622 10623 10625
10713 10713 10712 10711 10711 10712 10714 10715 10715 10714 10713 10712 10711 10711 10711 10711 10711 10711 10712 10712 10710 10708 10707 10706 10706 10706 10704 10702 10702 10702 10702 10700 10699 10698 10695 10692 10689 10688 10689 10688 10686 10684 10681 10679 10677 10674 10673 10673 10671 10668 10665 10663 10662 10660 10658 10657 10655 10653 10651 10649 10647 10645 10644 10642 10640 10639 10637 10635 10634 10634 10632 10629 10626 10624 10623 10623 10621 10620 10619 10619 10618 10617 10617 10617 10616 10617 10617 10618
10708 10707 10706 10706 10705 10707 10708 10709 10709 10708 10707 10706 10705 10705 10705 10705 10705 10706 10707 10707 10706 10704 10702 10700 10700 10701 10701 10699 10699 10699 10699 10698 10697 10695 10694 10692 10689 10687 10687 10687 10685 10683 10680 10677 10676 10673 10670 10670 10670 10668 10664 10661 10659 10657 10655 10653 10651 10650 10649 10646 10644 10642 10641 10639 10637 10636 10634 10631 10630 10630 10629 10626 10624 10621 10619 10619 10618 10616 10615 10614 10613 10612 10610 10609 10610 10610 10610 10610
10702 10701 10701 10700 10700 10700 10701 10703 10703 10702 10701 10701 10700 10699 10698 10699 10699 10700 10701 10701 10702 10701 10698 10695 10695 10696 10695 10694 10694 10695 10695 10694 10693 10692 10691 10689 10687 10685 10685 10684 10683 10682 10679 10676 10674 10672 10668 10666 10666 10666 10664 10660 10657 10655 10653 10650 10647 10646 10645 10643 10641 10640 10638 10636 10634 10632 10631 10628 10626 10625 10624 10622 10621 10619 10616 10615 10614 10613 10612 10610 10609 10607 10605 10604 10603 10603 10602 10602
10697 10696 10696 10695 10695 10695 10695 10696 10696 10696 10696 10695 10695 10694 10693 10693 10694 10694 10695 10696 10696 10696 10694 10690 10690 10691 10691 10689 10688 10688 10690 10689 10688 10688 10687 10686 10683 10680 10680 10680 10678 10679 10677 10673 10671 10669 10666 10662 10661 10661 10660 10657 10654 10653 10652 10650 10646 10644 10642 10640 10638 10636 10635 10633 10631 10629 10628 10626 10623 10621 10619 10618 10617 10616 10613 10611 10610 10609 10608 10607 10605 10603 10601 10599 10597 10596 10594 10593
10691 10691 10691 10690 10690 10690 10690 10690 10690 10690 10691 10691 10690 10690 10688 10688 10688 10689 10690 10691 10691 10690 10689 10687 10685 10685 10685 10686 10684 10682 10684 10684 10683 10683 10682 10681 10679 10676 10675 10675 10673 10673 10673 10670 10667 10666 10663 10658 10655 10656 10656 10652 10648 10647 10647 10646 10643 10641 10639 10638 10635 10633 10631 10629 10627 10626 10625 10623 10621 10618 10615 10613 10613 10612 10610 10608 10606 10605 10604 10603 10602 10600 10598 10596 10593 10590 10588 10585
10684 10684 10685 10684 10683 10684 10685 10685 10685 10685 10686 10686 10685 10685 10684 10683 10682 10683 10684 10685 10686 10685 10684 10682 10680 10679 10679 10680 10679 10678 10678 10678 10677 10677 10676 10676 10675 10672 10670 10670 10669 10668 10669 10668 10664 10662 10660 10656 10650 10650 10652 10649 10645 10642 10641 10640 10638 10636 10634 10633 10632 10630 10627 10625 10624 10622 10621 10620 10618 10616 10612 10609 10609 10608 10606 10604 10603 10601 10599 10598 10597 10596 10594 10592 10589 10585 10582 10580
10677 10678 10679 10677 10677 10679 10679 10679 10679 10680 10680 10679 10679 10679 10679 10677 10676 10676 10678 10679 10680 10680 10679 10677 10675 10674 10673 10673 10673 10673 10673 10672 10671 10671 10671 10670 10670 10668 10665 10664 10663 10663 10665 10665 10661 10658 10657 10655 10649 10643 10645 10646 10643 10639 10637 10635 10633 10631 10629 10627 10627 10627 10625 10623 10620 10618 10618 10616 10615 10614 10609 10604 10604 10604 10601 10599 10599 10597 10596 10594 10593 10591 10589 10587 10585 10582 10578 10575
10670 10671 10672 10671 10670 10671 10672 10672 10672 10673 10672 10672 10672 10673 10673 10672 10669 10669 10671 10672 10673 10674 10673 10672 10671 10669 10667 10667 10668 10668 10667 10666 10665 10665 10665 10664 10664 10663 10661 10660 10658 10658 10659 10660 10658 10654 10652 10653 10649 10641 10638 10639 10638 10636 10635 10633 10630 10627 10625 10623 10621 10621 10620 10619 10617 10614 10614 10612 10611 10611 10607 10600 10600 10601 10597 10594 10593 10592 10592 10591 10589 10587 10585 10583 10581 10578 10575 10571
10662 10663 10665 10664 10664 10664 10665 10664 10665 10666 10665 10664 10665 10665 10666 10666 10663 10661 10663 10664 10665 10667 10667 10666 10666 10664 10662 10661 10662 10662 10661 10661 10660 10659 10660 10659 10658 10657 10655 10654 10653 10652 10653 10655 10653 10650 10648 10648 10647 10641 10635 10633 10632 10631 10630 10630 10628 10624 10621 10619 10617 10615 10614 10614 10613 10610 10609 10607 10606 10608 10605 10597 10596 10597 10594 10591 10588 10586 10586 10586 10585 10584 10581 10579 10576 10574 10571 10568
10654 10654 10656 10657 10656 10657 10658 10657 10657 10658 10658 10657 10657 10657 10658 10660 10658 10655 10655 10656 10658 10659 10659 10660 10660 10659 10658 10656 10656 10656 10656 10656 10654 10652 10653 10653 10652 10650 10648 10647 10647 10647 10648 10649 10648 10646 10644 10644 10642 10638 10633 10628 10625 10625 10626 10625 10623 10620 10616 10613 10612 10612 10610 10609 10608 10606 10605 10602 10601 10603 10601 10595 10593 10592 10590 10588 10586 10582 10581 10581 10580 10579 10578 10575 10573 10569 10566 10563
10645 10645 10648 10648 10648 10649 10650 10649 10650 10651 10650 10649 10649 10650 10650 10652 10651 10649 10648 10648 10650 10651 10652 10653 10653 10654 10653 10652 10651 10650 10650 10650 10650 10647 10645 10645 10645 10644 10641 10639 10639 10641 10642 10642 10641 10640 10639 10639 10638 10634 10630 10625 10620 10617 10619 10620 10618 10615 10613 10608 10606 10605 10605 10604 10603 10602 10600 10598 10596 10596 10594 10591 10590 10588 10585 10584 10582 10579 10576 10576 10575 10574 10573 10571 10569 10565 10562 10558
10636 10637 10638 10639 10640 10641 10641 10641 10642 10642 10641 10641 10643 10642 10642 10642 10643 10644 10643 10642 10641 10643 10644 10645 10646 10646 10647 10647 10646 10644 10643 10644 10644 10642 10639 10638 10638 10637 10635 10632 10631 10634 10636 10635 10634 10633 10633 10634 10632 10630 10627 10623 10617 10612 10611 10612 10612 10610 10609 10605 10601 10599 10598 10597 10597 10597 10595 10594 10592 10590 10588 10587 10585 10582 10581 10580 10578 10575 10572 10571 10570 10569 10568 10567 10565 10561 10558 10554
10626 10627 10628 10629 10631 10633 10633 10632 10633 10633 10632 10634 10635 10635 10634 10634 10634 10635 10637 10636 10634 10634 10636 10638 10638 10637 10638 10639 10639 10638 10637 10636 10637 10638 10635 10633 10632 10630 10628 10626 10624 10627 10628 10628 10626 10625 10626 10627 10626 10623 10622 10619 10615 10610 10605 10605 10606 10605 10603 10601 10598 10594 10591 10590 10591 10590 10589 10589 10588 10584 10581 10583 10581 10577 10576 10576 10575 10572 10569 10567 10566 10565 10564 10563 10561 10558 10555 10551
10616 10617 10618 10620 10622 10624 10624 10622 10623 10624 10625 10626 10627 10627 10627 10627 10626 10626 10627 10629 10628 10627 10628 10630 10630 10629 10629 10629 10630 10630 10630 10629 10629 10630 10629 10627 10626 10625 10622 10619 10617 10620 10620 10620 10620 10618 10618 10620 10619 10616 10615 10613 10610 10607 10601 10598 10599 10600 10598 10596 10593 10589 10585 10584 10584 10584 10582 10583 10583 10578 10576 10577 10575 10572 10572 10572 10571 10568 10566 10564 10562 10561 10559 10558 10557 10555 10552 10549
10606 10607 10608 10610 10612 10614 10614 10613 10613 10615 10616 10617 10619 10619 10619 10618 10618 10617 10617 10619 10619 10619 10621 10622 10622 10621 10622 10622 10622 10622 10621 10622 10622 10621 10620 10621 10620 10619 10617 10611 10610 10612 10612 10611 10613 10612 10610 10611 10612 10610 10608 10606 10604 10602 10597 10593 10594 10595 10593 10590 10587 10583 10580 10580 10579 10577 10575 10576 10576 10573 10571 10571 10567 10565 10567 10568 10566 10564 10562 10560 10558 10557 10556 10554 10553 10551 10549 10545
10597 10597 10598 10600 10602 10603 10604 10604 10604 10605 10606 10607 10609 10610 10610 10609 10609 10608 10608 10609 10610 10610 10612 10614 10614 10613 10614 10615 10615 10615 10613 10613 10614 10613 10613 10614 10614 10613 10611 10605 10602 10604 10605 10603 10603 10604 10604 10603 10603 10603 10603 10600 10596 10595 10592 10589 10589 10590 10588 10585 10580 10576 10575 10576 10575 10572 10570 10570 10569 10567 10568 10566 10560 10559 10562 10562 10560 10559 10558 10556 10554 10552 10551 10550 10548 10547 10545 10542
10586 10586 10587 10589 10591 10592 10593 10594 10595 10597 10597 10598 10600 10599 10599 10600 10600 10600 10600 10600 10600 10600 10601 10604 10606 10605 10605 10606 10607 10607 10606 10605 10605 10604 10605 10606 10606 10605 10604 10601 10596 10594 10595 10595 10594 10595 10596 10596 10594 10595 10596 10595 10590 10587 10585 10584 10584 10586 10583 10578 10572 10570 10572 10571 10569 10566 10564 10563 10562 10561 10562 10560 10554 10554 10556 10555 10554 10554 10554 10552 10551 10549 10548 10546 10544 10543 10541 10538
10575 10575 10576 10579 10581 10582 10583 10583 10584 10587 10589 10589 10590 10589 10589 10589 10589 10590 10592 10591 10591 10590 10590 10593 10595 10596 10596 10596 10596 10597 10597 10597 10597 10596 10596 10597 10597 10596 10596 10595 10592 10588 10586 10585 10585 10585 10585 10586 10586 10585 10588 10589 10585 10580 10578 10577 10579 10582 10577 10568 10564 10566 10567 10565 10562 10560 10559 10557 10556 10554 10554 10553 10550 10550 10550 10549 10548 10548 10548 10547 10547 10545 10544 10542 10540 10539 10538 10535
10563 10564 10566 10568 10571 10572 10573 10573 10574 10576 10578 10579 10579 10579 10580 10580 10579 10580 10584 10584 10582 10581 10581 10583 10584 10584 10585 10585 10585 10585 10586 10586 10587 10588 10588 10588 10588 10587 10587 10587 10586 10583 10579 10576 10575 10575 10575 10576 10576 10575 10578 10581 10579 10574 10570 10570 10576 10577 10568 10559 10559 10561 10560 10558 10556 10554 10553 10552 10550 10549 10548 10546 10545 10545 10544 10543 10543 10542 10542 10541 10541 10540 10539 10538 10537 10536 10534 10531